{"data":{"norad_id":68463,"intl_designator":"2026-067AZ","name":"GARAI-B (UNAMUNO)","alt_names":[],"object_type":"PAYLOAD","status":"ACTIVE","operator":null,"country":"SPN","launch_date":"2026-03-30","launch_site_code":"AFWTR","launch_vehicle":null,"mission":null,"orbit_class":"UNKNOWN","rcs_meters":null,"size_class":null,"mass_kg":null,"dimensions":null,"purposes":[],"wikipedia_slug":null,"has_3d_model":false,"image_url":null,"decayed_at":null,"tle_current":{"epoch":"2026-09-19T07:30:53.486784Z","epoch_age_seconds":171458,"freshness":"FRESH","line1":"1 68463U 26067AZ  26262.31311906  .00003472  00000+0  19219-3 0  9990","line2":"2 68463  97.4633 219.1639 0005137  99.3417 260.8396 15.14486275 26208","mean_motion":15.14486275,"eccentricity":0.0005137,"inclination_deg":97.4633,"raan_deg":219.1639,"arg_perigee_deg":99.3417,"mean_anomaly_deg":260.8396,"bstar":0.00019219,"rev_number":2620,"period_min":95.081746448973,"perigee_km":518.99374895923,"apogee_km":526.08350309741,"semimajor_km":6900.6756260283,"source":"CELESTRAK","updated_at":"2026-09-20T09:00:24.237697Z"}}}